N3FKZ Weather Reports


Display with metric or nautical units.
time (UTC)temp
F
wind
direction
speed
MPH
gust
MPH
rain 1hr
in
rain 24hr
in
rain mn
in
humidity
%
barometer
mb
20210227044049 51 194 2.0 2.0 0.00 1.05 0.00 92 1014.0
20210227043548 50 194 1.0 2.0 0.00 1.05 0.00 91 1014.0
20210227042626 50 194 0.0 0.0 0.00 1.05 0.00 90 1014.3
20210227042049 50 194 0.0 0.0 0.00 1.05 0.00 89 1014.3
20210227041550 50 194 0.0 0.0 0.00 1.05 0.00 89 1014.3
20210227041046 50 194 0.0 1.0 0.00 1.05 0.00 89 1014.0
20210227035549 51 194 0.0 0.0 0.00 1.06 0.00 88 1014.1
20210227035216 51 194 0.0 0.0 0.00 1.08 0.00 88 1014.1
20210227034546 51 194 0.0 0.0 0.00 1.11 0.00 88 1014.2
20210227034046 51 194 0.0 0.0 0.00 1.12 0.00 88 1014.0
20210227033546 52 194 0.0 0.0 0.00 1.12 0.00 88 1013.9
20210227032611 52 194 0.0 2.0 0.00 1.12 0.00 88 1014.0
20210227032047 52 194 1.0 2.0 0.00 1.12 0.00 87 1014.0
20210227031553 53 194 0.0 1.0 0.00 1.12 0.00 88 1013.7
20210227031046 53 194 1.0 2.0 0.00 1.13 0.00 87 1013.4
20210227030048 53 194 0.0 2.0 0.00 1.13 0.00 87 1013.4
20210227025546 53 194 1.0 2.0 0.00 1.13 0.00 87 1013.6
20210227025153 53 194 1.0 2.0 0.00 1.14 0.00 86 1013.7
20210227024546 54 194 0.0 1.0 0.00 1.19 0.00 86 1013.4
20210227024046 54 194 0.0 2.0 0.00 1.21 0.00 86 1013.2
20210227023548 54 194 1.0 1.0 0.00 1.22 0.00 86 1013.1
20210227023047 54 194 1.0 2.0 0.00 1.22 0.00 86 1013.0
20210227022623 54 194 0.0 1.0 0.00 1.22 0.00 86 1013.0
20210227022048 54 194 0.0 2.0 0.00 1.22 0.00 86 1013.0
20210227021557 54 194 0.0 1.0 0.00 1.22 0.00 86 1013.1
20210227021051 54 194 1.0 1.0 0.00 1.23 0.00 86 1013.3
20210227020546 54 194 0.0 0.0 0.00 1.23 0.00 85 1013.3
20210227020048 54 194 0.0 0.0 0.00 1.23 0.00 85 1013.0
20210227015550 54 194 0.0 1.0 0.00 1.23 0.00 85 1012.9
20210227015224 54 194 0.0 0.0 0.00 1.23 0.00 85 1012.8
20210227014547 54 194 0.0 0.0 0.00 1.23 0.00 85 1012.7
20210227014046 54 194 0.0 2.0 0.00 1.23 0.00 85 1012.7
20210227013549 54 194 1.0 4.0 0.00 1.23 0.00 85 1012.5
20210227013047 54 194 2.0 3.0 0.00 1.23 0.00 85 1012.1
20210227012729 54 194 1.0 2.0 0.00 1.23 0.00 85 1012.3
20210227012046 54 194 1.0 2.0 0.00 1.23 0.00 85 1012.3
20210227011553 54 194 0.0 1.0 0.00 1.23 0.00 84 1012.2
20210227011048 55 194 0.0 0.0 0.00 1.23 0.00 84 1012.1
20210227010550 55 194 0.0 0.0 0.00 1.23 0.00 84 1012.1
20210227010051 55 194 0.0 0.0 0.00 1.23 0.00 84 1012.2
20210227005549 55 194 0.0 0.0 0.00 1.23 0.00 83 1012.2
20210227005328 55 194 0.0 0.0 0.00 1.23 0.00 82 1012.2
20210227004547 55 194 0.0 0.0 0.00 1.23 0.00 82 1012.1
20210227004047 55 194 0.0 0.0 0.00 1.23 0.00 81 1012.1
20210227003549 55 194 0.0 0.0 0.00 1.23 0.00 81 1011.9
20210227003049 55 194 0.0 1.0 0.00 1.23 0.00 81 1011.8
20210227002807 56 194 1.0 2.0 0.00 1.23 0.00 81 1011.7
20210227002047 56 194 2.0 4.0 0.00 1.23 0.00 81 1011.7
20210227001550 56 193 2.0 3.0 0.00 1.23 0.00 81 1011.7
20210227001049 56 192 1.0 3.0 0.00 1.23 0.00 80 1011.7
20210227000601 56 192 1.0 4.0 0.00 1.23 0.00 80 1011.6
20210227000048 56 192 3.0 3.0 0.00 1.24 0.00 80 1011.5
20210226235547 56 192 2.0 4.0 0.00 1.24 0.00 80 1011.5
20210226235047 57 192 1.0 4.0 0.00 1.24 0.00 80 1011.5
20210226234546 57 192 2.0 4.0 0.00 1.24 0.00 80 1011.6
20210226234049 57 218 3.0 6.0 0.00 1.24 0.00 79 1011.7
20210226233546 57 239 1.0 4.0 0.00 1.24 0.00 80 1011.7
20210226233138 57 254 3.0 5.0 0.00 1.24 0.00 79 1011.7
20210226232831 57 200 1.0 4.0 0.00 1.24 0.00 79 1011.6
20210226232051 57 250 2.0 6.0 0.00 1.24 0.00 79 1011.6
20210226231554 57 257 3.0 6.0 0.00 1.24 0.00 79 1011.6
20210226231047 57 234 1.0 5.0 0.00 1.24 0.00 79 1011.6
20210226230551 57 217 5.0 5.0 0.00 1.24 0.00 79 1011.6
20210226230047 57 227 3.0 5.0 0.00 1.24 0.00 78 1011.6
20210226225550 57 254 4.0 5.0 0.00 1.24 0.00 79 1011.6
20210226225049 57 241 2.0 5.0 0.00 1.24 0.00 79 1011.6
20210226224548 57 227 2.0 5.0 0.00 1.24 0.00 79 1011.6
20210226224046 57 252 5.0 5.0 0.00 1.25 0.00 78 1011.5
20210226223547 57 200 4.0 5.0 0.00 1.25 0.00 78 1011.5
20210226223104 57 245 2.0 4.0 0.00 1.25 0.00 78 1011.5
20210226222726 57 236 4.0 4.0 0.00 1.25 0.00 77 1011.5
20210226222048 57 253 3.0 5.0 0.00 1.25 0.00 77 1011.5
20210226221549 57 227 1.0 5.0 0.00 1.25 0.00 77 1011.5
20210226220549 57 207 2.0 5.0 0.00 1.25 0.00 78 1011.5
20210226220046 57 217 1.0 4.0 0.00 1.25 0.00 78 1011.5
20210226215547 57 246 3.0 6.0 0.00 1.25 0.00 77 1011.6
20210226215046 57 238 1.0 5.0 0.00 1.25 0.00 77 1011.5
20210226214547 58 200 4.0 6.0 0.00 1.25 0.00 77 1011.5
20210226214053 58 236 1.0 6.0 0.00 1.29 0.00 77 1011.5
20210226213546 57 238 3.0 4.0 0.00 1.30 0.00 77 1011.5
20210226213049 58 227 4.0 5.0 0.00 1.30 0.00 77 1011.5
20210226212748 58 242 4.0 6.0 0.00 1.30 0.00 77 1011.5
20210226212052 58 250 2.0 6.0 0.00 1.30 0.00 78 1011.5
20210226211558 58 210 4.0 6.0 0.00 1.30 0.00 77 1011.6
20210226211050 58 213 2.0 5.0 0.00 1.30 0.00 78 1011.5
20210226210546 57 226 2.0 6.0 0.00 1.30 0.00 77 1011.7
20210226210046 58 251 5.0 6.0 0.00 1.30 0.00 78 1012.0
20210226205549 57 234 1.0 6.0 0.00 1.30 0.00 77 1011.9
20210226205047 58 260 3.0 6.0 0.00 1.30 0.00 77 1011.9
20210226204549 58 232 2.0 5.0 0.00 1.30 0.00 76 1011.8
20210226204049 58 244 1.0 6.0 0.00 1.30 0.00 77 1011.8
20210226203550 58 225 3.0 6.0 0.00 1.30 0.00 77 1011.7
20210226203151 57 197 4.0 6.0 0.00 1.30 0.00 78 1011.7
20210226202553 57 235 3.0 6.0 0.00 1.30 0.00 78 1011.7
20210226202049 57 248 1.0 5.0 0.00 1.30 0.00 78 1011.7
20210226201548 57 227 4.0 5.0 0.00 1.30 0.00 78 1011.9
20210226201049 57 209 4.0 5.0 0.00 1.30 0.00 78 1012.0
20210226200553 57 259 4.0 6.0 0.00 1.30 0.00 78 1012.1
20210226200047 56 227 2.0 3.0 0.00 1.30 0.00 79 1012.1
20210226195556 56 227 2.0 4.0 0.00 1.30 0.00 79 1012.1
20210226195049 56 236 2.0 4.0 0.00 1.30 0.00 79 1012.4
20210226194546 56 228 1.0 3.0 0.00 1.30 0.00 78 1012.4
20210226194051 56 228 2.0 5.0 0.00 1.30 0.00 79 1012.6
20210226193549 56 259 2.0 3.0 0.00 1.30 0.00 80 1012.7
20210226193236 56 259 2.0 4.0 0.00 1.30 0.00 80 1012.7
20210226192552 56 276 2.0 4.0 0.00 1.30 0.00 80 1012.7
20210226192046 56 232 3.0 4.0 0.00 1.30 0.00 80 1013.0
20210226191550 56 232 1.0 3.0 0.00 1.30 0.00 79 1013.2
20210226191048 56 231 1.0 3.0 0.00 1.30 0.00 80 1013.4
20210226190552 56 231 1.0 3.0 0.00 1.30 0.00 80 1013.6
20210226190046 56 231 2.0 4.0 0.00 1.30 0.00 80 1013.4
20210226185546 56 264 2.0 4.0 0.00 1.30 0.00 81 1013.5
20210226184554 55 244 1.0 3.0 0.00 1.30 0.00 80 1013.6
20210226184107 55 244 1.0 4.0 0.00 1.30 0.00 80 1013.8
20210226183548 55 244 2.0 2.0 0.00 1.30 0.00 81 1014.0
20210226183049 55 244 1.0 2.0 0.00 1.30 0.00 82 1014.0
20210226182640 55 243 1.0 4.0 0.00 1.30 0.00 81 1014.1
20210226182046 54 243 1.0 2.0 0.00 1.30 0.00 82 1014.3
20210226181557 54 243 0.0 4.0 0.00 1.30 0.00 81 1014.4
20210226181046 54 219 2.0 5.0 0.00 1.30 0.00 82 1014.7
20210226180546 54 259 2.0 4.0 0.00 1.30 0.00 84 1014.8
20210226180102 54 218 1.0 6.0 0.00 1.30 0.00 83 1014.9
20210226175547 54 233 2.0 4.0 0.00 1.30 0.00 83 1015.1
20210226175048 54 244 2.0 4.0 0.00 1.30 0.00 84 1015.0
20210226174552 53 244 2.0 3.0 0.00 1.30 0.00 85 1015.0
20210226174053 53 244 3.0 3.0 0.00 1.30 0.00 84 1015.0
20210226173546 53 244 0.0 4.0 0.00 1.30 0.00 84 1015.1
20210226173111 53 236 2.0 4.0 0.00 1.30 0.00 87 1015.0
20210226172739 53 259 0.0 5.0 0.00 1.30 0.00 87 1015.2
20210226172047 53 207 3.0 4.0 0.00 1.30 0.00 88 1015.3
20210226171547 52 247 3.0 4.0 0.00 1.30 0.00 87 1015.3
20210226171049 52 234 2.0 4.0 0.00 1.30 0.00 89 1015.4
20210226170558 51 278 1.0 2.0 0.00 1.30 0.00 89 1015.3
20210226170046 51 325 2.0 4.0 0.00 1.30 0.00 90 1015.4
20210226165552 51 205 2.0 3.0 0.00 1.30 0.00 90 1015.3
20210226165159 50 205 1.0 2.0 0.00 1.30 0.00 91 1015.4
20210226164546 50 205 0.0 3.0 0.00 1.30 0.00 90 1015.2
20210226164046 49 205 0.0 3.0 0.00 1.30 0.00 91 1015.2
20210226163546 49 144 1.0 2.0 0.00 1.30 0.00 92 1015.3
20210226163046 49 144 1.0 2.0 0.00 1.30 0.00 92 1015.5
20210226162626 48 144 1.0 2.0 0.00 1.30 0.00 92 1015.4
20210226162046 48 144 1.0 2.0 0.00 1.30 0.00 92 1015.5
20210226161552 48 144 0.0 1.0 0.00 1.30 0.00 92 1015.5
20210226161046 48 144 1.0 3.0 0.00 1.30 0.00 92 1015.6
20210226160550 47 144 3.0 3.0 0.00 1.30 0.00 92 1015.5
20210226160051 47 61 0.0 2.0 0.00 1.30 0.00 92 1015.6
20210226155547 47 61 2.0 3.0 0.00 1.30 0.00 93 1015.6
20210226155225 47 61 1.0 1.0 0.00 1.30 0.00 93 1015.9
20210226154550 47 61 0.0 0.0 0.00 1.30 0.00 93 1015.8
20210226154046 47 61 1.0 2.0 0.00 1.30 0.00 93 1015.9
20210226153546 46 61 2.0 2.0 0.00 1.30 0.00 93 1015.7
20210226153046 46 61 2.0 2.0 0.00 1.30 0.00 93 1015.6
20210226152056 46 61 2.0 3.0 0.00 1.30 0.00 93 1015.7
20210226151546 46 61 0.0 1.0 0.00 1.30 0.00 93 1015.9
20210226151102 46 61 0.0 3.0 0.00 1.30 0.00 93 1016.0
20210226150546 46 61 0.0 3.0 0.00 1.30 0.00 94 1015.6
20210226150056 46 61 1.0 2.0 0.00 1.30 0.00 93 1015.7
20210226145551 46 61 0.0 2.0 0.00 1.30 0.00 93 1015.7
20210226145306 45 61 0.0 2.0 0.00 1.30 0.00 94 1015.7
20210226144546 45 61 0.0 2.0 0.00 1.30 0.00 94 1015.7
20210226144046 45 61 0.0 3.0 0.00 1.30 0.00 93 1015.6
20210226143550 45 61 1.0 2.0 0.00 1.30 0.00 93 1015.6
20210226143049 45 61 1.0 3.0 0.00 1.30 0.00 93 1015.5
20210226142723 45 61 1.0 2.0 0.00 1.30 0.00 94 1015.6
20210226142048 45 58 1.0 4.0 0.00 1.30 0.00 94 1015.3
20210226141047 45 57 2.0 3.0 0.00 1.30 0.00 94 1015.2
20210226140549 45 57 1.0 3.0 0.00 1.30 0.00 94 1015.3
20210226140048 45 57 1.0 4.0 0.00 1.30 0.00 94 1015.2
20210226135226 45 52 2.0 3.0 0.00 1.30 0.00 94 1015.1
20210226134550 45 52 1.0 2.0 0.00 1.30 0.00 94 1015.2
20210226134047 44 52 2.0 3.0 0.00 1.30 0.00 94 1015.0
20210226133546 44 52 1.0 2.0 0.00 1.30 0.00 94 1015.0
20210226133046 44 52 0.0 3.0 0.00 1.30 0.00 94 1015.2
20210226132049 44 52 1.0 3.0 0.00 1.30 0.00 94 1015.3
20210226131549 44 52 0.0 4.0 0.00 1.30 0.00 94 1015.3
20210226131047 44 52 1.0 3.0 0.00 1.30 0.00 94 1015.1
20210226130605 44 52 2.0 2.0 0.00 1.30 0.00 93 1015.0
20210226130050 44 52 1.0 2.0 0.00 1.30 0.00 94 1015.2
20210226125608 44 52 1.0 3.0 0.00 1.30 0.00 93 1015.0
20210226125349 44 52 2.0 2.0 0.00 1.30 0.00 94 1015.1
20210226124559 44 52 1.0 3.0 0.00 1.30 0.00 94 1015.1
20210226124048 44 51 1.0 3.0 0.00 1.30 0.00 94 1015.2
20210226123547 44 52 1.0 3.0 0.00 1.30 0.00 93 1015.2
20210226123048 44 52 3.0 4.0 0.00 1.30 0.00 94 1015.0
20210226122655 44 55 1.0 2.0 0.00 1.30 0.00 93 1015.2
20210226122046 44 55 1.0 5.0 0.00 1.30 0.00 93 1015.1
20210226121546 45 55 4.0 4.0 0.00 1.30 0.00 93 1014.9
20210226121127 45 52 3.0 4.0 0.00 1.30 0.00 94 1015.3
20210226120600 45 52 0.0 3.0 0.00 1.30 0.00 94 1015.4
20210226120050 45 53 3.0 4.0 0.01 1.30 0.00 94 1015.3
20210226115548 45 53 0.0 4.0 0.02 1.30 0.00 94 1015.1
20210226115345 45 53 2.0 4.0 0.03 1.30 0.00 94 1015.0
20210226114546 45 53 2.0 3.0 0.03 1.30 0.00 94 1015.1
20210226114051 45 53 1.0 4.0 0.03 1.30 0.00 94 1015.2
20210226113548 45 53 3.0 4.0 0.03 1.30 0.00 94 1015.1
20210226113046 45 53 0.0 1.0 0.03 1.30 0.00 94 1015.5
20210226112046 45 17 4.0 5.0 0.04 1.30 0.00 93 1015.1
20210226111557 45 34 2.0 4.0 0.05 1.30 0.00 94 1015.2
20210226111048 45 44 3.0 4.0 0.09 1.30 0.00 93 1015.2
20210226110601 45 18 1.0 4.0 0.09 1.30 0.00 93 1015.5
20210226110053 45 39 1.0 3.0 0.09 1.29 0.00 93 1015.2
20210226105046 45 39 2.0 4.0 0.09 1.27 0.00 94 1015.2
20210226104547 45 24 2.0 5.0 0.09 1.27 0.00 94 1015.2
20210226104059 45 31 3.0 5.0 0.10 1.27 0.00 93 1015.1
20210226103552 45 42 1.0 4.0 0.22 1.27 0.00 93 1015.2
20210226103116 45 75 2.0 6.0 0.25 1.27 0.00 94 1015.6
20210226102849 45 28 2.0 4.0 0.28 1.27 0.00 94 1015.9
20210226102054 45 17 2.0 4.0 0.28 1.26 0.00 93 1015.5
20210226101546 45 104 3.0 4.0 0.27 1.24 0.00 93 1015.6
20210226101101 46 74 2.0 6.0 0.23 1.20 0.00 93 1015.4
20210226100549 46 41 0.0 5.0 0.24 1.20 0.00 93 1014.7
20210226100120 46 46 4.0 5.0 0.22 1.19 0.00 94 1014.4
20210226095550 46 56 3.0 4.0 0.21 1.18 0.00 93 1014.7
20210226095049 46 5 2.0 4.0 0.21 1.18 0.00 93 1015.1
20210226094547 46 53 2.0 5.0 0.21 1.18 0.00 93 1014.6
20210226094046 46 51 4.0 5.0 0.19 1.16 0.00 93 1015.7
20210226093549 46 296 1.0 3.0 0.09 1.05 0.00 93 1016.5
20210226093118 46 71 2.0 5.0 0.06 1.02 0.00 93 1015.4
20210226092826 46 63 2.0 9.0 0.04 0.99 0.00 93 1015.3
20210226092048 46 331 3.0 7.0 0.03 0.98 0.00 93 1015.8
20210226091549 46 46 5.0 9.0 0.03 0.97 0.00 93 1015.7
20210226091046 46 27 2.0 5.0 0.04 0.97 0.00 93 1015.5
20210226090552 46 51 4.0 8.0 0.04 0.96 0.00 93 1015.2
20210226090058 46 52 6.0 9.0 0.04 0.96 0.00 93 1015.0
20210226085546 47 47 3.0 6.0 0.04 0.96 0.00 94 1015.0
20210226085309 47 47 5.0 9.0 0.05 0.96 0.00 94 1015.1
20210226084548 47 59 2.0 6.0 0.06 0.96 0.00 94 1015.6
20210226084047 47 15 3.0 7.0 0.06 0.96 0.00 94 1015.3
20210226083546 47 45 4.0 7.0 0.06 0.96 0.00 93 1015.1
20210226083049 47 22 2.0 7.0 0.07 0.96 0.00 93 1015.8
20210226082644 47 163 5.0 9.0 0.07 0.95 0.00 93 1015.5
20210226082047 47 110 5.0 11.0 0.07 0.95 0.00 93 1014.6
20210226081546 47 69 6.0 7.0 0.07 0.94 0.00 93 1016.2
20210226081049 47 11 5.0 7.0 0.07 0.93 0.00 93 1016.0
20210226080549 47 25 4.0 10.0 0.10 0.92 0.00 93 1015.8
20210226080103 47 19 4.0 4.0 0.13 0.92 0.00 93 1016.3
20210226075549 47 280 1.0 2.0 0.14 0.91 0.00 93 1017.1
20210226075324 47 280 2.0 3.0 0.17 0.90 0.00 94 1017.2
20210226074546 47 312 2.0 6.0 0.18 0.89 0.00 94 1017.4
20210226074053 47 297 3.0 5.0 0.21 0.89 0.00 93 1016.2
20210226073546 47 71 2.0 5.0 0.27 0.89 0.00 93 1015.4
20210226073049 47 76 3.0 5.0 0.26 0.88 0.00 93 1015.4
20210226072705 47 59 2.0 4.0 0.27 0.87 0.00 93 1015.5
20210226072053 47 317 0.0 3.0 0.29 0.87 0.00 93 1017.0
20210226071552 47 19 2.0 5.0 0.31 0.86 0.00 93 1016.0
20210226071046 47 309 3.0 7.0 0.32 0.85 0.00 93 1015.9
20210226070552 47 59 4.0 6.0 0.36 0.81 0.00 93 1015.6
20210226070046 47 220 3.0 4.0 0.42 0.79 0.00 93 1016.9
20210226065546 47 43 5.0 10.0 0.46 0.77 0.00 93 1015.4
20210226065052 47 5 3.0 4.0 0.43 0.73 0.00 93 1016.5
20210226064546 47 346 1.0 4.0 0.42 0.71 0.00 93 1016.7
20210226064046 48 53 3.0 6.0 0.39 0.68 0.00 93 1016.0
20210226063546 48 56 2.0 3.0 0.33 0.61 0.00 93 1016.5
20210226063050 48 56 2.0 6.0 0.33 0.61 0.00 93 1016.2
20210226062828 48 48 5.0 5.0 0.31 0.59 0.00 93 1016.1
20210226062052 48 30 1.0 2.0 0.29 0.57 0.00 93 1017.2
20210226061619 48 30 2.0 4.0 0.26 0.54 0.00 92 1016.8
20210226061056 48 51 3.0 6.0 0.24 0.53 0.00 92 1016.3
20210226060555 48 147 3.0 5.0 0.18 0.45 0.00 93 1016.9
20210226060114 48 311 1.0 5.0 0.09 0.37 0.00 93 1018.6
20210226055547 48 340 3.0 12.0 0.04 0.31 0.00 93 1019.6
20210226055314 48 242 4.0 6.0 0.04 0.30 0.00 92 1018.1
20210226054550 48 163 4.0 10.0 0.04 0.29 0.00 92 1016.8
20210226054046 48 140 4.0 9.0 0.04 0.29 0.00 92 1016.3
20210226053546 48 153 4.0 5.0 0.04 0.29 0.00 92 1017.1
20210226053049 48 76 3.0 4.0 0.04 0.29 0.00 92 1017.5
20210226052711 48 57 2.0 6.0 0.04 0.29 0.00 92 1016.5
20210226052046 48 62 2.0 7.0 0.04 0.29 0.00 92 1016.2
20210226051549 48 91 4.0 7.0 0.04 0.29 0.00 92 1016.0
20210226051053 48 80 3.0 10.0 0.04 0.29 0.00 92 1015.7
20210226050546 48 94 4.0 7.0 0.03 0.28 0.00 92 1015.8
20210226050052 48 44 5.0 9.0 0.03 0.28 0.00 92 1016.5
20210226045549 48 59 4.0 6.0 0.04 0.28 0.00 92 1017.2
20210226045231 48 40 3.0 6.0 0.04 0.27 0.00 92 1017.8
20210226044550 48 76 4.0 11.0 0.05 0.25 0.00 92 1018.0